| time (UTC) | temp C | wind direction | speed KPH | gust KPH | rain 1hr cm | rain 24hr cm | rain mn cm | humidity % | barometer mb |
| 20260906221016 | 26 | 90 | 3.2 | 3.2 | 0.00 | 0.00 | 0.00 | 59 | 1014.4 |
| 20260906211028 | 27 | 11 | 0.0 | 0.0 | 0.00 | 0.00 | 0.00 | 52 | 1014.2 |
| 20260906201020 | 26 | 319 | 0.0 | 0.0 | 0.00 | 0.00 | 0.00 | 58 | 1014.4 |
| 20260906191036 | 27 | 9 | 1.6 | 8.0 | 0.00 | 0.03 | 0.00 | 56 | 1014.4 |
| 20260906181027 | 28 | 28 | 3.2 | 3.2 | 0.00 | 0.10 | 0.00 | 56 | 1014.9 |
| 20260906171015 | 28 | 78 | 0.0 | 4.8 | 0.00 | 0.18 | 0.00 | 55 | 1015.1 |
| 20260906161025 | 27 | 291 | 4.8 | 4.8 | 0.00 | 0.89 | 0.00 | 62 | 1015.2 |
| 20260906151020 | 26 | 340 | 0.0 | 0.0 | 0.00 | 0.89 | 0.00 | 64 | 1015.3 |
| 20260906141012 | 24 | 28 | 0.0 | 0.0 | 0.00 | 0.89 | 0.00 | 78 | 1015.0 |
| 20260906131029 | 22 | 355 | 0.0 | 3.2 | 0.00 | 0.89 | 0.00 | 87 | 1014.6 |
| 20260906121050 | 21 | 5 | 4.8 | 4.8 | 0.00 | 0.89 | 0.00 | 88 | 1014.4 |
| 20260906111014 | 21 | 31 | 0.0 | 1.6 | 0.00 | 0.89 | 0.00 | 92 | 1013.6 |
| 20260906101022 | 21 | 355 | 0.0 | 0.0 | 0.00 | 0.91 | 0.00 | 94 | 1012.9 |
| 20260906091023 | 21 | 360 | 0.0 | 0.0 | 0.00 | 0.91 | 0.00 | 96 | 1012.4 |
| 20260906081055 | 22 | 340 | 0.0 | 0.0 | 0.00 | 0.91 | 0.00 | 96 | 1012.2 |
| 20260906071015 | 22 | 344 | 0.0 | 0.0 | 0.00 | 0.91 | 0.00 | 96 | 1011.9 |
| 20260906061020 | 22 | 350 | 0.0 | 0.0 | 0.00 | 0.91 | 0.00 | 96 | 1012.3 |
| 20260906051027 | 22 | 360 | 0.0 | 0.0 | 0.00 | 0.91 | 0.00 | 96 | 1012.5 |
| 20260906041036 | 22 | 312 | 0.0 | 0.0 | 0.00 | 0.91 | 0.00 | 96 | 1012.6 |
| 20260906031023 | 22 | 312 | 0.0 | 0.0 | 0.00 | 0.91 | 0.91 | 95 | 1012.4 |
| 20260906021030 | 22 | 312 | 0.0 | 0.0 | 0.00 | 0.91 | 0.91 | 94 | 1012.5 |
| 20260906011018 | 23 | 312 | 0.0 | 0.0 | 0.00 | 0.91 | 0.91 | 93 | 1012.1 |
| 20260906001024 | 23 | 312 | 0.0 | 0.0 | 0.00 | 0.91 | 0.91 | 92 | 1011.3 |
| 20260905231040 | 23 | 292 | 0.0 | 0.0 | 0.00 | 0.97 | 0.91 | 90 | 1010.9 |